EW3441 Holyrood CA current weather conditions

sailwx.info

Wind from 355

Air temperature 23.9° C
Dewpoint 12.2° C

Last reported at 2020-Aug-06 16:01 UTC.
Time now 2020-Aug-06 16:25 UTC

Location: N 47°24' W 053°06'.
View on Google Maps.

See reports from other nearby stations

  
Tides and Currents Weather Stations Pressure Air Temp Water Temp Dewpoint Dewpoint Depression Visibility Wind Speed Wind Dir Waves Ship Positions
date/time (UTC)wind fromknots sea level pressurealtimeterstation pressurevisibilityair tempwater tempwave heightnotes
2020-Aug-06 16:01 355 23.9
2020-Aug-06 15:45 323 23.3
2020-Aug-06 15:31 326 23.3
2020-Aug-06 15:16 294 23.3
2020-Aug-06 15:00 311 23.3
2020-Aug-06 14:45 340 23.3
2020-Aug-06 14:30 333 22.8
2020-Aug-06 14:15 005 22.2
2020-Aug-06 14:00 327 21.7
2020-Aug-06 13:31 350 18.9
2020-Aug-06 13:17 019 18.3
2020-Aug-06 13:02 355 17.8
2020-Aug-06 12:47 012 16.7
2020-Aug-06 12:31 355 16.1
2020-Aug-06 12:15 005 15.0
2020-Aug-06 12:00 005 14.4
2020-Aug-06 11:46 005 13.3
2020-Aug-06 11:30 005 13.3
2020-Aug-06 11:16 005 12.8
2020-Aug-06 11:01 005 12.8
2020-Aug-06 10:45 005 12.2
2020-Aug-06 10:31 005 12.2
2020-Aug-06 10:15 005 12.2
2020-Aug-06 10:00 005 12.2
2020-Aug-06 09:45 005 12.8
2020-Aug-06 09:30 005 12.8
2020-Aug-06 09:15 005 12.8
2020-Aug-06 09:01 005 12.8
2020-Aug-06 08:45 005 12.8
2020-Aug-06 08:30 005 12.8
2020-Aug-06 08:15 005 13.3
2020-Aug-06 08:00 005 13.3
2020-Aug-06 07:45 005 13.3
2020-Aug-06 07:30 005 13.3
2020-Aug-06 07:15 005 13.9
2020-Aug-06 07:00 005 13.9
2020-Aug-06 06:45 005 13.9
2020-Aug-06 06:31 005 13.9
2020-Aug-06 06:16 005 14.4
2020-Aug-06 06:02 005 14.4
2020-Aug-06 05:46 005 15.0
2020-Aug-06 05:31 005 15.0
2020-Aug-06 05:16 005 15.6
2020-Aug-06 05:01 005 16.1
2020-Aug-06 04:47 005 16.1
2020-Aug-06 04:31 005 16.7
2020-Aug-06 04:16 005 17.2
2020-Aug-06 04:01 005 17.2
2020-Aug-06 03:45 005 17.8
2020-Aug-06 03:30 005 17.8
2020-Aug-06 03:16 005 18.3
2020-Aug-06 03:02 005 18.3
2020-Aug-06 02:45 005 18.3
2020-Aug-06 02:31 330 18.3
2020-Aug-06 02:15 330 18.3
2020-Aug-06 02:01 330 18.9
2020-Aug-06 01:46 330 19.4
2020-Aug-06 01:30 330 19.4
2020-Aug-06 01:16 330 20.0
2020-Aug-06 01:01 330 20.6
2020-Aug-06 00:45 330 21.1
2020-Aug-06 00:30 330 21.7
2020-Aug-06 00:15 246 22.2
2020-Aug-06 00:01 131 22.2
2020-Aug-05 23:45 355 22.8
2020-Aug-05 23:30 321 22.8
2020-Aug-05 23:16 065 22.8
2020-Aug-05 23:01 071 23.3
2020-Aug-05 22:46 199 23.9
2020-Aug-05 22:30 355 23.9
2020-Aug-05 22:15 189 23.9
2020-Aug-05 22:00 158 23.9
2020-Aug-05 21:46 348 24.4
2020-Aug-05 21:30 188 24.4
2020-Aug-05 21:15 163 24.4
2020-Aug-05 21:00 226 24.4
2020-Aug-05 20:45 173 23.9
2020-Aug-05 20:30 151 24.4
2020-Aug-05 20:15 060 24.4
2020-Aug-05 20:00 317 23.9
2020-Aug-05 19:45 306 23.3
2020-Aug-05 19:30 348 23.9
2020-Aug-05 19:16 014 23.3
2020-Aug-05 19:00 345 22.8
2020-Aug-05 18:45 169 22.8
2020-Aug-05 18:30 057 23.3
2020-Aug-05 18:15 173 22.8
2020-Aug-05 18:00 150 23.3
2020-Aug-05 17:45 355 0 gusting 3 22.8
2020-Aug-05 17:30 163 22.8
2020-Aug-05 17:15 149 22.2
2020-Aug-05 17:02 200 22.2
2020-Aug-05 16:46 355 22.2
2020-Aug-05 16:32 013 21.7
2020-Aug-05 16:16 005 21.1
2020-Aug-05 16:01 010 20.6
2020-Aug-05 15:46 018 20.6
2020-Aug-05 15:31 009 20.6
2020-Aug-05 15:16 317 20.0
2020-Aug-05 15:01 342 20.0
2020-Aug-05 14:46 154 19.4
2020-Aug-05 14:31 360 18.9
2020-Aug-05 14:15 355 18.9
2020-Aug-05 14:00 073 18.3
2020-Aug-05 13:45 016 17.8
2020-Aug-05 13:30 347 16.7
2020-Aug-05 13:15 033 16.1
2020-Aug-05 13:00 033 15.6
2020-Aug-05 12:45 005 15.0
2020-Aug-05 12:31 023 14.4
2020-Aug-05 12:16 027 14.4
2020-Aug-05 12:01 018 13.9
2020-Aug-05 11:49 017 13.9
2020-Aug-05 11:31 360 13.3
2020-Aug-05 11:17 360 12.8
2020-Aug-05 11:02 360 12.8
2020-Aug-05 10:46 360 12.8
2020-Aug-05 10:31 360 12.8
2020-Aug-05 10:16 360 12.8
2020-Aug-05 10:02 360 12.8
2020-Aug-05 09:45 360 12.8
2020-Aug-05 09:31 360 13.3
2020-Aug-05 09:15 360 13.3
2020-Aug-05 09:00 360 13.3
2020-Aug-05 08:45 360 13.3
2020-Aug-05 08:30 360 13.3
2020-Aug-05 08:16 360 13.3
2020-Aug-05 08:00 360 13.3
2020-Aug-05 07:45 360 13.3
2020-Aug-05 07:30 360 13.9
2020-Aug-05 07:15 360 13.9
2020-Aug-05 07:00 360 13.9
2020-Aug-05 06:45 360 14.4
2020-Aug-05 06:30 360 14.4
2020-Aug-05 06:15 360 15.0
2020-Aug-05 06:00 360 15.0
2020-Aug-05 05:45 360 15.0
2020-Aug-05 05:30 360 15.6
2020-Aug-05 05:15 360 15.6
2020-Aug-05 05:00 360 15.6
2020-Aug-05 04:45 360 15.6
2020-Aug-05 04:30 360 15.6
2020-Aug-05 04:15 360 15.6
2020-Aug-05 04:01 360 15.6
2020-Aug-05 03:46 340 15.6
2020-Aug-05 03:31 340 15.6
2020-Aug-05 03:17 340 16.1
2020-Aug-05 03:02 340 16.1
2020-Aug-05 02:46 340 16.1
2020-Aug-05 02:31 340 16.7
2020-Aug-05 02:16 340 16.7
2020-Aug-05 02:01 340 16.7
2020-Aug-05 01:47 340 16.7
2020-Aug-05 01:31 340 16.7
2020-Aug-05 01:16 340 16.7
2020-Aug-05 01:01 355 16.7
2020-Aug-05 00:46 355 16.7
2020-Aug-05 00:31 355 16.7
2020-Aug-05 00:18 355 16.7
2020-Aug-05 00:00 355 16.7
2020-Aug-04 23:45 355 16.7
2020-Aug-04 23:31 342 16.7
2020-Aug-04 23:16 319 16.7
2020-Aug-04 23:01 005 16.7
2020-Aug-04 22:46 005 17.2
2020-Aug-04 22:30 342 17.8
2020-Aug-04 22:15 032 17.8
2020-Aug-04 22:01 341 17.8
2020-Aug-04 21:45 360 17.8
2020-Aug-04 21:31 360 17.8
2020-Aug-04 21:15 017 18.3
2020-Aug-04 21:01 325 18.3
2020-Aug-04 20:46 027 17.8
2020-Aug-04 20:31 316 17.8
2020-Aug-04 20:15 337 18.3
2020-Aug-04 20:00 209 20.6
2020-Aug-04 19:45 009 20.6
2020-Aug-04 19:30 230 21.1
2020-Aug-04 19:16 054 22.2
2020-Aug-04 19:00 329 22.2
2020-Aug-04 18:45 081 21.1
2020-Aug-04 18:30 010 20.0
2020-Aug-04 18:15 018 20.0
2020-Aug-04 18:00 024 21.1
2020-Aug-04 17:45 308 21.7
2020-Aug-04 17:30 005 22.2
2020-Aug-04 17:15 005 22.2
2020-Aug-04 17:00 190 21.7
2020-Aug-04 16:45 035 21.1
2020-Aug-04 16:15 033 21.1
2020-Aug-04 16:00 344 21.1